Location: Nairn
(57.5833°N, 3.8667°W)
Time: 11:24:24
(UTC+00:00)

Transit 4A - Visible Passes

Search period start: 30 November 2020 00:00
Search period end: 10 December 2020 00:00
Orbit: 862 x 982 km, 66.8° (Epoch: 29 November)

Date Brightness Start Highest point End Pass type
(mag) Time Alt. Az. Time Alt. Az. Time Alt. Az.
30 Nov 11.3 06:21:57 10° ESE 06:24:22 12° E 06:26:46 10° ENE visible
30 Nov 9.8 16:58:18 10° NW 17:04:01 35° WSW 17:09:36 10° S visible
01 Dec 11.1 06:29:19 10° SE 06:33:15 17° ESE 06:37:12 10° ENE visible
01 Dec 10.3 17:07:53 10° WNW 17:13:05 27° WSW 17:18:11 10° SSW visible
02 Dec 10.6 06:37:23 10° SSE 06:42:13 23° ESE 06:47:05 10° ENE visible
02 Dec 10.8 17:17:37 10° WNW 17:22:05 20° WSW 17:26:28 10° SSW visible
03 Dec 10.1 06:45:48 10° S 06:51:15 30° ESE 06:56:44 10° NE visible
03 Dec 11.1 17:27:40 10° WNW 17:31:00 15° WSW 17:34:18 10° SW visible
04 Dec 9.6 06:54:29 10° S 07:00:21 40° ESE 07:06:16 10° NE visible
04 Dec 11.5 17:39:05 10° W 17:39:52 10° W 17:40:38 10° WSW visible
05 Dec 11.0 05:21:24 10° SE 05:24:29 14° E 05:27:35 10° ENE visible
05 Dec 9.0 07:03:22 10° SSW 07:09:31 51° ESE 07:15:43 10° NE visible
06 Dec 10.6 05:29:06 10° SSE 05:33:24 19° ESE 05:37:44 10° ENE visible
06 Dec 8.5 07:12:25 10° SSW 07:18:45 65° SE 07:25:07 10° NE visible
07 Dec 10.2 05:37:19 10° SSE 05:42:24 26° ESE 05:47:31 10° ENE visible
07 Dec 8.2 07:21:38 10° SW 07:28:02 81° SE 07:34:30 10° NE visible
07 Dec 10.8 16:18:08 10° WNW 16:22:14 18° WSW 16:26:16 10° SW visible
08 Dec 9.7 05:45:50 10° S 05:51:27 34° ESE 05:57:07 10° NE visible
08 Dec 8.0 07:30:58 10° SW 07:37:24 83° NW 07:43:52 10° NE visible
08 Dec 11.0 16:28:25 10° WNW 16:31:08 13° W 16:33:50 10° SW visible
09 Dec 10.9 04:14:05 10° ESE 04:15:45 11° E 04:17:26 10° E visible
09 Dec 9.2 05:54:36 10° S 06:00:35 44° ESE 06:06:36 10° NE visible
09 Dec 8.0 07:40:24 10° WSW 07:46:49 69° NW 07:53:15 10° NE visible
